This is the latest recevied weather packets stored in our database for station/object KX4O-13. If no packets are shown the sender has not sent any weather packets the latest 10 day(s).
| Time | Temp. | Humidity | Pressure | Rain* | Wind** | Luminosity | Snow |
|---|---|---|---|---|---|---|---|
| 1777564561 | 18.33° C | 61% | 1009.5 hPa | 0 mm | - | 861 W/m² | - |
| 1777564261 | 17.78° C | 57% | 1009.5 hPa | 0 mm | - | 847 W/m² | - |
| 1777563961 | 17.22° C | 62% | 1009.5 hPa | 0 mm | - | 833 W/m² | - |
| 1777563661 | 16.67° C | 62% | 1009.6 hPa | 0 mm | - | 276 W/m² | - |
| 1777563361 | 16.11° C | 62% | 1009.8 hPa | 0 mm | - | 276 W/m² | - |
| 1777563061 | 16.11° C | 62% | 1009.9 hPa | 0 mm | - | 276 W/m² | - |
| 1777562761 | 16.67° C | 62% | 1010 hPa | 0 mm | - | 417 W/m² | - |
| 1777562461 | 16.11° C | 64% | 1009.9 hPa | 0 mm | - | 399 W/m² | - |
| 1777562161 | 15.56° C | 65% | 1009.9 hPa | 0 mm | - | 246 W/m² | - |
| 1777561861 | 15.56° C | 64% | 1010 hPa | 0 mm | - | 179 W/m² | - |
| 1777561561 | 15.56° C | 64% | 1010 hPa | 0 mm | - | 179 W/m² | - |
| 1777561261 | 15.56° C | 63% | 1010.1 hPa | 0 mm | - | 179 W/m² | - |
| 1777560961 | 16.11° C | 62% | 1010 hPa | 0 mm | - | 179 W/m² | - |
| 1777560661 | 16.11° C | 61% | 1009.9 hPa | 0 mm | - | 330 W/m² | - |
| 1777560361 | 16.67° C | 62% | 1009.9 hPa | 0 mm | - | 724 W/m² | - |
| 1777560061 | 16.11° C | 64% | 1009.8 hPa | 0 mm | - | 698 W/m² | - |
| 1777559761 | 16.11° C | 65% | 1009.8 hPa | 0 mm | - | 401 W/m² | - |
| 1777559461 | 15.56° C | 67% | 1009.9 hPa | 0 mm | - | 749 W/m² | - |
| 1777559161 | 15.56° C | 63% | 1010 hPa | 0 mm | - | 183 W/m² | - |
| 1777558861 | 15° C | 71% | 1009.9 hPa | 0 mm | - | 202 W/m² | - |
| 1777558561 | 15.56° C | 71% | 1010 hPa | 0 mm | - | 202 W/m² | - |
| 1777558261 | 16.11° C | 71% | 1010 hPa | 0 mm | - | 613 W/m² | - |
| 1777557961 | 16.11° C | 71% | 1010 hPa | 0 mm | - | 573 W/m² | - |
| 1777557661 | 15.56° C | 71% | 1010.1 hPa | 0 mm | - | 555 W/m² | - |
| 1777557361 | 15.56° C | 71% | 1010.2 hPa | 0 mm | - | 545 W/m² | - |
* Rain latest hour (hover to see other rain measurements)
** Current wind speed in m/s (hover to see current wind gust speed)